Laucala Island Airport


Codes: NFNH/LUC
Name: Laucala Island Airport
City: Laucala Island
Country: Fiji
Elevation: 10 ft.

Photos at Laucala Island Airport


   Photos courtesy of SpottingLog. You can add your own sightings and photos by signing up for a free trial today.



No photos found.

Weather at Laucala Island Airport


Time (UTC)DescriptionTempratureWindCloud coverageVisibilityPressureHumidity
13-Jun-2024 00:00Clear Sky26°C7 mph, SE4%10000m1012hPa84%
13-Jun-2024 03:00Few Clouds26°C7 mph, SE11%10000m1011hPa84%
13-Jun-2024 06:00Few Clouds26°C9 mph, SE17%10000m1011hPa86%
13-Jun-2024 09:00Clear Sky26°C11 mph, SE5%10000m1012hPa88%
13-Jun-2024 12:00Scattered Clouds26°C9 mph, SE33%10000m1012hPa88%
13-Jun-2024 15:00Light Rain26°C7 mph, SE52%10000m1011hPa88%
13-Jun-2024 18:00Light Rain26°C2 mph, SE49%10000m1011hPa86%
13-Jun-2024 21:00Overcast Clouds26°C0 mph, NE98%10000m1013hPa84%
14-Jun-2024 00:00Broken Clouds27°C4 mph, N65%10000m1012hPa82%
14-Jun-2024 03:00Broken Clouds27°C9 mph, N83%10000m1010hPa83%
14-Jun-2024 06:00Light Rain27°C11 mph, N92%10000m1011hPa86%
14-Jun-2024 09:00Overcast Clouds26°C9 mph, N100%10000m1013hPa86%
14-Jun-2024 12:00Overcast Clouds26°C7 mph, NW100%10000m1013hPa86%
14-Jun-2024 15:00Light Rain26°C4 mph, NW100%10000m1011hPa85%
14-Jun-2024 18:00Overcast Clouds26°C2 mph, N100%10000m1012hPa85%
14-Jun-2024 21:00Overcast Clouds26°C4 mph, NE93%10000m1014hPa84%
15-Jun-2024 00:00Overcast Clouds26°C4 mph, SE93%10000m1013hPa80%
15-Jun-2024 03:00Overcast Clouds26°C9 mph, SE100%10000m1012hPa80%
15-Jun-2024 06:00Overcast Clouds26°C9 mph, SE100%10000m1013hPa85%
15-Jun-2024 09:00Overcast Clouds26°C11 mph, E99%10000m1015hPa84%
15-Jun-2024 12:00Broken Clouds26°C9 mph, SE77%10000m1014hPa82%
15-Jun-2024 15:00Few Clouds26°C11 mph, SE20%10000m1013hPa83%
15-Jun-2024 18:00Scattered Clouds26°C16 mph, SE29%10000m1013hPa88%
15-Jun-2024 21:00Light Rain26°C11 mph, SE69%10000m1016hPa89%
16-Jun-2024 00:00Light Rain26°C11 mph, E57%10000m1014hPa88%
16-Jun-2024 03:00Light Rain27°C11 mph, E8%10000m1013hPa88%
16-Jun-2024 06:00Clear Sky27°C11 mph, E8%10000m1014hPa88%
16-Jun-2024 09:00Light Rain27°C13 mph, E32%10000m1016hPa85%
16-Jun-2024 12:00Scattered Clouds26°C16 mph, E25%10000m1015hPa90%
16-Jun-2024 15:00Light Rain26°C16 mph, E13%10000m1013hPa90%
16-Jun-2024 18:00Light Rain26°C16 mph, E27%10000m1014hPa91%
16-Jun-2024 21:00Few Clouds26°C16 mph, E11%10000m1016hPa89%
17-Jun-2024 00:00Scattered Clouds26°C13 mph, E25%10000m1014hPa86%
17-Jun-2024 03:00Light Rain27°C16 mph, E99%10000m1012hPa83%
17-Jun-2024 06:00Light Rain27°C13 mph, E94%10000m1013hPa83%
17-Jun-2024 09:00Scattered Clouds26°C16 mph, E42%10000m1015hPa88%
17-Jun-2024 12:00Light Rain26°C13 mph, E35%10000m1014hPa90%
17-Jun-2024 15:00Light Rain26°C13 mph, E100%10000m1013hPa90%
17-Jun-2024 18:00Light Rain26°C16 mph, E100%10000m1014hPa89%
17-Jun-2024 21:00Light Rain26°C13 mph, E79%10000m1015hPa90%